| time (UTC) | temp F | wind direction | speed MPH | gust MPH | rain 1hr in | rain 24hr in | rain mn in | humidity % | barometer mb |
| 20260508005617 | 52 | 5 | 2.0 | 5.0 | 0.00 | 0.00 | 0.00 | 87 | 1014.4 |
| 20260508004504 | 52 | 286 | 1.0 | 3.0 | 0.00 | 0.00 | 0.00 | 88 | 1014.5 |
| 20260508003605 | 52 | 347 | 1.0 | 3.0 | 0.00 | 0.00 | 0.00 | 88 | 1014.5 |
| 20260508002703 | 52 | 241 | 1.0 | 2.0 | 0.00 | 0.00 | 0.00 | 89 | 1014.6 |
| 20260508001803 | 51 | 338 | 0.0 | 3.0 | 0.00 | 0.00 | 0.00 | 90 | 1014.6 |
| 20260508000903 | 51 | 0 | 0.0 | 0.0 | 0.00 | 0.00 | 0.00 | 91 | 1014.6 |
| 20260508000003 | 51 | 0 | 0.0 | 0.0 | 0.00 | 0.00 | 0.00 | 91 | 1014.6 |
| 20260507235403 | 51 | 0 | 0.0 | 0.0 | 0.00 | 0.00 | 0.00 | 91 | 1014.5 |
| 20260507234504 | 51 | 0 | 0.0 | 0.0 | 0.00 | 0.00 | 0.00 | 90 | 1014.5 |
| 20260507233603 | 51 | 0 | 0.0 | 0.0 | 0.00 | 0.00 | 0.00 | 90 | 1014.5 |
| 20260507232704 | 51 | 0 | 0.0 | 0.0 | 0.00 | 0.01 | 0.00 | 90 | 1014.5 |
| 20260507231803 | 52 | 0 | 0.0 | 0.0 | 0.00 | 0.01 | 0.00 | 90 | 1014.6 |
| 20260507230903 | 52 | 0 | 0.0 | 0.0 | 0.00 | 0.01 | 0.00 | 90 | 1014.6 |
| 20260507230217 | 52 | 0 | 0.0 | 0.0 | 0.00 | 0.01 | 0.00 | 89 | 1014.7 |
| 20260507225403 | 52 | 0 | 0.0 | 0.0 | 0.00 | 0.01 | 0.00 | 89 | 1014.7 |
| 20260507224504 | 52 | 0 | 0.0 | 0.0 | 0.00 | 0.01 | 0.00 | 89 | 1014.7 |
| 20260507223603 | 52 | 29 | 1.0 | 2.0 | 0.00 | 0.01 | 0.00 | 88 | 1014.8 |
| 20260507222703 | 52 | 29 | 1.0 | 3.0 | 0.00 | 0.01 | 0.00 | 88 | 1014.7 |
| 20260507221803 | 53 | 29 | 0.0 | 2.0 | 0.00 | 0.01 | 0.00 | 87 | 1014.7 |
| 20260507220903 | 53 | 29 | 1.0 | 2.0 | 0.00 | 0.01 | 0.00 | 87 | 1014.6 |
| 20260507220217 | 53 | 29 | 0.0 | 2.0 | 0.00 | 0.02 | 0.00 | 86 | 1014.6 |
| 20260507215404 | 53 | 0 | 0.0 | 0.0 | 0.00 | 0.02 | 0.02 | 86 | 1014.6 |
| 20260507214503 | 54 | 0 | 1.0 | 0.0 | 0.00 | 0.02 | 0.02 | 85 | 1014.7 |
| 20260507213603 | 54 | 29 | 1.0 | 3.0 | 0.00 | 0.02 | 0.02 | 85 | 1014.5 |
| 20260507212703 | 54 | 29 | 1.0 | 3.0 | 0.00 | 0.02 | 0.02 | 84 | 1014.5 |
| 20260507211804 | 54 | 29 | 0.0 | 2.0 | 0.00 | 0.02 | 0.02 | 84 | 1014.5 |
| 20260507210903 | 54 | 0 | 0.0 | 0.0 | 0.00 | 0.02 | 0.02 | 83 | 1014.5 |
| 20260507210003 | 54 | 0 | 0.0 | 0.0 | 0.00 | 0.02 | 0.02 | 82 | 1014.4 |
| 20260507205618 | 55 | 0 | 0.0 | 0.0 | 0.00 | 0.02 | 0.02 | 81 | 1014.5 |
| 20260507204503 | 55 | 40 | 1.0 | 2.0 | 0.00 | 0.02 | 0.02 | 81 | 1014.3 |
| 20260507203817 | 54 | 71 | 1.0 | 3.0 | 0.00 | 0.02 | 0.02 | 82 | 1014.3 |
| 20260507202703 | 54 | 183 | 0.0 | 3.0 | 0.00 | 0.02 | 0.02 | 82 | 1014.3 |
| 20260507202017 | 54 | 0 | 0.0 | 0.0 | 0.00 | 0.02 | 0.02 | 82 | 1014.2 |
| 20260507200903 | 55 | 207 | 0.0 | 1.0 | 0.00 | 0.02 | 0.02 | 81 | 1014.0 |
| 20260507200003 | 55 | 207 | 0.0 | 2.0 | 0.00 | 0.02 | 0.02 | 80 | 1013.8 |
| 20260507195403 | 55 | 0 | 0.0 | 0.0 | 0.00 | 0.02 | 0.02 | 80 | 1013.8 |
| 20260507194717 | 55 | 0 | 0.0 | 0.0 | 0.00 | 0.02 | 0.02 | 80 | 1013.7 |
| 20260507193604 | 56 | 0 | 0.0 | 0.0 | 0.00 | 0.02 | 0.02 | 79 | 1013.6 |
| 20260507192703 | 56 | 0 | 0.0 | 0.0 | 0.00 | 0.02 | 0.02 | 78 | 1013.4 |
| 20260507191803 | 57 | 206 | 0.0 | 1.0 | 0.00 | 0.02 | 0.02 | 77 | 1013.3 |
| 20260507190903 | 57 | 206 | 1.0 | 2.0 | 0.00 | 0.02 | 0.02 | 76 | 1013.0 |
| 20260507190218 | 58 | 206 | 0.0 | 2.0 | 0.00 | 0.02 | 0.02 | 74 | 1013.1 |
| 20260507185404 | 58 | 184 | 1.0 | 2.0 | 0.00 | 0.02 | 0.02 | 72 | 1013.1 |
| 20260507184503 | 60 | 184 | 1.0 | 2.0 | 0.00 | 0.02 | 0.02 | 69 | 1013.0 |
| 20260507183603 | 61 | 184 | 0.0 | 2.0 | 0.00 | 0.02 | 0.02 | 69 | 1012.7 |
| 20260507182704 | 62 | 184 | 1.0 | 2.0 | 0.00 | 0.02 | 0.02 | 67 | 1012.6 |
| 20260507181803 | 63 | 184 | 1.0 | 2.0 | 0.00 | 0.02 | 0.02 | 61 | 1012.6 |
| 20260507180903 | 65 | 180 | 1.0 | 2.0 | 0.00 | 0.06 | 0.02 | 60 | 1012.5 |
| 20260507180003 | 66 | 174 | 1.0 | 2.0 | 0.00 | 0.13 | 0.02 | 58 | 1012.4 |
| 20260507175403 | 66 | 168 | 1.0 | 4.0 | 0.00 | 0.15 | 0.02 | 56 | 1012.4 |
| 20260507174504 | 67 | 151 | 1.0 | 3.0 | 0.00 | 0.17 | 0.02 | 53 | 1012.2 |
| 20260507173818 | 66 | 148 | 2.0 | 4.0 | 0.00 | 0.19 | 0.02 | 52 | 1012.3 |
| 20260507172703 | 66 | 139 | 3.0 | 5.0 | 0.00 | 0.25 | 0.02 | 52 | 1012.0 |
| 20260507171804 | 67 | 139 | 2.0 | 7.0 | 0.00 | 0.27 | 0.02 | 53 | 1012.2 |
| 20260507170903 | 67 | 136 | 2.0 | 5.0 | 0.00 | 0.28 | 0.02 | 51 | 1012.1 |
| 20260507170003 | 68 | 172 | 3.0 | 6.0 | 0.00 | 0.29 | 0.02 | 53 | 1012.1 |
| 20260507165403 | 68 | 161 | 3.0 | 7.0 | 0.00 | 0.29 | 0.02 | 51 | 1012.0 |
| 20260507164503 | 68 | 160 | 3.0 | 8.0 | 0.00 | 0.29 | 0.02 | 52 | 1012.1 |
| 20260507163603 | 67 | 144 | 3.0 | 7.0 | 0.00 | 0.29 | 0.02 | 52 | 1012.1 |
| 20260507162703 | 67 | 137 | 3.0 | 8.0 | 0.00 | 0.29 | 0.02 | 52 | 1012.0 |
| 20260507161803 | 67 | 148 | 3.0 | 6.0 | 0.00 | 0.29 | 0.02 | 51 | 1011.9 |
| 20260507160903 | 68 | 127 | 2.0 | 7.0 | 0.00 | 0.29 | 0.02 | 50 | 1011.9 |
| 20260507160003 | 68 | 141 | 1.0 | 6.0 | 0.00 | 0.29 | 0.02 | 48 | 1012.0 |
| 20260507155618 | 68 | 157 | 1.0 | 4.0 | 0.00 | 0.29 | 0.02 | 53 | 1012.0 |
| 20260507154503 | 67 | 138 | 2.0 | 6.0 | 0.00 | 0.29 | 0.02 | 53 | 1011.9 |
| 20260507153603 | 67 | 142 | 2.0 | 5.0 | 0.00 | 0.29 | 0.02 | 52 | 1012.0 |
| 20260507152703 | 67 | 132 | 2.0 | 5.0 | 0.00 | 0.29 | 0.02 | 53 | 1011.9 |
| 20260507151803 | 67 | 115 | 2.0 | 4.0 | 0.00 | 0.29 | 0.02 | 52 | 1011.9 |
| 20260507150904 | 67 | 101 | 3.0 | 7.0 | 0.00 | 0.29 | 0.02 | 50 | 1012.1 |
| 20260507150003 | 67 | 98 | 4.0 | 8.0 | 0.00 | 0.29 | 0.02 | 52 | 1012.1 |
| 20260507145404 | 68 | 134 | 3.0 | 8.0 | 0.00 | 0.29 | 0.02 | 52 | 1012.1 |
| 20260507144503 | 68 | 195 | 1.0 | 5.0 | 0.00 | 0.29 | 0.02 | 52 | 1012.1 |
| 20260507143603 | 67 | 138 | 1.0 | 2.0 | 0.00 | 0.29 | 0.02 | 50 | 1012.2 |
| 20260507142703 | 66 | 154 | 2.0 | 5.0 | 0.00 | 0.29 | 0.02 | 52 | 1012.2 |
| 20260507141803 | 67 | 140 | 3.0 | 5.0 | 0.00 | 0.29 | 0.02 | 50 | 1012.2 |
| 20260507141116 | 67 | 141 | 3.0 | 8.0 | 0.00 | 0.29 | 0.02 | 52 | 1012.2 |
| 20260507140004 | 68 | 138 | 4.0 | 7.0 | 0.00 | 0.29 | 0.02 | 52 | 1012.4 |
| 20260507135403 | 68 | 152 | 4.0 | 11.0 | 0.00 | 0.29 | 0.02 | 54 | 1012.4 |
| 20260507134503 | 68 | 131 | 2.0 | 7.0 | 0.00 | 0.29 | 0.02 | 54 | 1012.4 |
| 20260507133603 | 67 | 101 | 2.0 | 7.0 | 0.00 | 0.29 | 0.02 | 56 | 1012.6 |
| 20260507132703 | 66 | 114 | 3.0 | 6.0 | 0.00 | 0.29 | 0.02 | 54 | 1012.6 |
| 20260507131804 | 66 | 119 | 4.0 | 11.0 | 0.00 | 0.29 | 0.02 | 58 | 1012.7 |
| 20260507130903 | 66 | 134 | 4.0 | 9.0 | 0.00 | 0.31 | 0.02 | 58 | 1012.8 |
| 20260507130003 | 66 | 128 | 5.0 | 11.0 | 0.00 | 0.38 | 0.02 | 56 | 1012.9 |
| 20260507125403 | 65 | 111 | 5.0 | 11.0 | 0.00 | 0.43 | 0.02 | 61 | 1012.8 |
| 20260507124718 | 65 | 118 | 4.0 | 11.0 | 0.00 | 0.52 | 0.02 | 59 | 1012.9 |
| 20260507123603 | 66 | 132 | 4.0 | 9.0 | 0.00 | 0.57 | 0.02 | 59 | 1012.9 |
| 20260507122917 | 65 | 155 | 5.0 | 10.0 | 0.00 | 0.59 | 0.02 | 61 | 1012.8 |
| 20260507121803 | 65 | 153 | 3.0 | 9.0 | 0.00 | 0.59 | 0.02 | 62 | 1013.0 |
| 20260507120903 | 64 | 127 | 3.0 | 9.0 | 0.00 | 0.59 | 0.02 | 61 | 1012.9 |
| 20260507120004 | 64 | 144 | 3.0 | 9.0 | 0.00 | 0.59 | 0.02 | 63 | 1013.0 |
| 20260507115404 | 64 | 131 | 4.0 | 8.0 | 0.00 | 0.59 | 0.02 | 60 | 1013.1 |
| 20260507114503 | 64 | 137 | 4.0 | 8.0 | 0.00 | 0.59 | 0.02 | 62 | 1013.1 |
| 20260507113817 | 64 | 125 | 5.0 | 10.0 | 0.00 | 0.59 | 0.02 | 57 | 1013.2 |
| 20260507112703 | 64 | 114 | 5.0 | 11.0 | 0.00 | 0.59 | 0.02 | 62 | 1013.3 |
| 20260507111803 | 63 | 108 | 3.0 | 11.0 | 0.00 | 0.59 | 0.02 | 62 | 1013.3 |
| 20260507111117 | 62 | 102 | 2.0 | 9.0 | 0.00 | 0.59 | 0.02 | 65 | 1013.3 |
| 20260507110003 | 62 | 188 | 2.0 | 4.0 | 0.00 | 0.59 | 0.02 | 67 | 1013.5 |
| 20260507105618 | 62 | 178 | 1.0 | 5.0 | 0.00 | 0.59 | 0.02 | 67 | 1013.5 |
| 20260507104503 | 61 | 156 | 2.0 | 6.0 | 0.00 | 0.61 | 0.02 | 70 | 1013.7 |
| 20260507103603 | 61 | 137 | 3.0 | 7.0 | 0.00 | 0.61 | 0.02 | 70 | 1013.7 |
| 20260507102703 | 62 | 168 | 3.0 | 7.0 | 0.00 | 0.61 | 0.02 | 71 | 1013.7 |
| 20260507101803 | 62 | 186 | 2.0 | 5.0 | 0.00 | 0.61 | 0.02 | 71 | 1013.8 |
| 20260507100904 | 62 | 177 | 3.0 | 6.0 | 0.00 | 0.61 | 0.02 | 71 | 1013.9 |
| 20260507100003 | 62 | 106 | 4.0 | 7.0 | 0.00 | 0.61 | 0.02 | 68 | 1013.9 |
| 20260507095618 | 61 | 112 | 4.0 | 9.0 | 0.00 | 0.61 | 0.02 | 68 | 1013.9 |
| 20260507094504 | 61 | 116 | 3.0 | 9.0 | 0.00 | 0.61 | 0.02 | 69 | 1013.9 |
| 20260507093603 | 60 | 102 | 3.0 | 8.0 | 0.00 | 0.61 | 0.02 | 70 | 1013.8 |
| 20260507092703 | 60 | 121 | 1.0 | 7.0 | 0.00 | 0.61 | 0.02 | 73 | 1013.8 |
| 20260507091803 | 59 | 132 | 1.0 | 2.0 | 0.00 | 0.61 | 0.02 | 77 | 1013.8 |
| 20260507090903 | 58 | 163 | 0.0 | 4.0 | 0.00 | 0.61 | 0.02 | 78 | 1013.7 |
| 20260507090218 | 58 | 165 | 0.0 | 4.0 | 0.00 | 0.61 | 0.02 | 79 | 1013.8 |
| 20260507085404 | 58 | 152 | 1.0 | 3.0 | 0.00 | 0.61 | 0.02 | 82 | 1013.8 |
| 20260507084504 | 58 | 148 | 1.0 | 3.0 | 0.00 | 0.61 | 0.02 | 78 | 1013.7 |
| 20260507083603 | 59 | 121 | 1.0 | 2.0 | 0.00 | 0.61 | 0.02 | 75 | 1013.6 |
| 20260507082703 | 59 | 51 | 2.0 | 4.0 | 0.00 | 0.61 | 0.02 | 72 | 1013.7 |
| 20260507082017 | 59 | 44 | 3.0 | 6.0 | 0.00 | 0.61 | 0.02 | 73 | 1013.7 |
| 20260507080903 | 59 | 41 | 3.0 | 7.0 | 0.00 | 0.61 | 0.02 | 73 | 1013.5 |
| 20260507080003 | 58 | 7 | 3.0 | 5.0 | 0.00 | 0.61 | 0.02 | 77 | 1013.4 |
| 20260507075403 | 58 | 10 | 4.0 | 7.0 | 0.00 | 0.61 | 0.02 | 78 | 1013.4 |
| 20260507074503 | 56 | 23 | 5.0 | 9.0 | 0.00 | 0.61 | 0.02 | 81 | 1013.4 |
| 20260507073603 | 55 | 15 | 3.0 | 9.0 | 0.00 | 0.61 | 0.02 | 81 | 1013.4 |
| 20260507072704 | 54 | 348 | 3.0 | 7.0 | 0.00 | 0.61 | 0.02 | 84 | 1013.4 |
| 20260507071803 | 54 | 340 | 4.0 | 9.0 | 0.00 | 0.61 | 0.02 | 86 | 1013.4 |
| 20260507070905 | 53 | 7 | 3.0 | 9.0 | 0.00 | 0.61 | 0.02 | 87 | 1013.4 |
| 20260507070006 | 53 | 6 | 4.0 | 8.0 | 0.00 | 0.61 | 0.02 | 87 | 1013.3 |
| 20260507065617 | 53 | 358 | 4.0 | 9.0 | 0.00 | 0.61 | 0.02 | 88 | 1013.3 |
| 20260507064503 | 52 | 339 | 3.0 | 9.0 | 0.00 | 0.61 | 0.02 | 89 | 1013.2 |
| 20260507063603 | 52 | 270 | 3.0 | 7.0 | 0.00 | 0.62 | 0.02 | 90 | 1013.1 |
| 20260507062703 | 52 | 333 | 3.0 | 9.0 | 0.00 | 0.62 | 0.02 | 90 | 1013.1 |
| 20260507061804 | 52 | 331 | 3.0 | 8.0 | 0.00 | 0.62 | 0.02 | 91 | 1013.1 |
| 20260507060903 | 51 | 348 | 4.0 | 8.0 | 0.00 | 0.62 | 0.02 | 91 | 1013.1 |
| 20260507060003 | 51 | 5 | 4.0 | 8.0 | 0.00 | 0.62 | 0.02 | 90 | 1012.9 |
| 20260507055403 | 51 | 6 | 5.0 | 8.0 | 0.00 | 0.62 | 0.02 | 90 | 1012.9 |
| 20260507054503 | 51 | 357 | 5.0 | 10.0 | 0.00 | 0.62 | 0.02 | 91 | 1012.8 |
| 20260507053817 | 50 | 1 | 4.0 | 10.0 | 0.00 | 0.62 | 0.02 | 91 | 1012.7 |
| 20260507052704 | 50 | 17 | 4.0 | 8.0 | 0.00 | 0.62 | 0.02 | 92 | 1012.6 |
| 20260507051803 | 50 | 18 | 3.0 | 8.0 | 0.00 | 0.62 | 0.02 | 92 | 1012.5 |
| 20260507050904 | 50 | 4 | 2.0 | 7.0 | 0.00 | 0.63 | 0.02 | 93 | 1012.5 |
| 20260507050003 | 50 | 239 | 2.0 | 3.0 | 0.00 | 0.63 | 0.02 | 93 | 1012.3 |
| 20260507045403 | 50 | 228 | 2.0 | 3.0 | 0.00 | 0.63 | 0.02 | 93 | 1012.3 |
| 20260507044503 | 50 | 286 | 4.0 | 5.0 | 0.00 | 0.63 | 0.02 | 92 | 1012.2 |
| 20260507043604 | 50 | 10 | 5.0 | 9.0 | 0.00 | 0.63 | 0.02 | 92 | 1012.1 |
| 20260507042703 | 50 | 20 | 5.0 | 9.0 | 0.00 | 0.63 | 0.02 | 92 | 1011.9 |
| 20260507041803 | 50 | 24 | 6.0 | 9.0 | 0.00 | 0.63 | 0.02 | 92 | 1011.7 |
| 20260507040903 | 50 | 24 | 5.0 | 10.0 | 0.00 | 0.63 | 0.02 | 92 | 1011.7 |
| 20260507040004 | 50 | 18 | 5.0 | 11.0 | 0.00 | 0.63 | 0.02 | 92 | 1011.8 |
| 20260507035403 | 50 | 16 | 5.0 | 11.0 | 0.00 | 0.63 | 0.02 | 92 | 1011.8 |
| 20260507034717 | 50 | 23 | 5.0 | 10.0 | 0.00 | 0.63 | 0.02 | 92 | 1011.8 |
| 20260507033603 | 50 | 19 | 4.0 | 7.0 | 0.00 | 0.64 | 0.02 | 93 | 1011.7 |
| 20260507032704 | 50 | 22 | 5.0 | 9.0 | 0.00 | 0.64 | 0.02 | 93 | 1011.7 |
| 20260507031803 | 50 | 24 | 5.0 | 9.0 | 0.00 | 0.65 | 0.02 | 93 | 1011.7 |
| 20260507031118 | 50 | 22 | 5.0 | 9.0 | 0.00 | 0.66 | 0.02 | 93 | 1011.7 |
| 20260507030003 | 50 | 19 | 6.0 | 11.0 | 0.00 | 0.82 | 0.02 | 93 | 1011.8 |
| 20260507025403 | 50 | 23 | 5.0 | 11.0 | 0.00 | 1.01 | 0.02 | 93 | 1011.7 |
| 20260507024503 | 50 | 16 | 5.0 | 8.0 | 0.00 | 1.02 | 0.02 | 93 | 1011.7 |
| 20260507023603 | 50 | 15 | 6.0 | 11.0 | 0.00 | 1.04 | 0.02 | 93 | 1011.6 |
| 20260507022704 | 50 | 10 | 5.0 | 11.0 | 0.00 | 1.05 | 0.02 | 94 | 1011.7 |
| 20260507021803 | 50 | 21 | 6.0 | 10.0 | 0.00 | 1.05 | 0.02 | 94 | 1011.9 |
| 20260507020903 | 50 | 23 | 6.0 | 10.0 | 0.00 | 1.05 | 0.02 | 94 | 1011.8 |
| 20260507020003 | 51 | 20 | 5.0 | 9.0 | 0.00 | 1.05 | 0.02 | 94 | 1011.8 |
| 20260507015403 | 51 | 21 | 4.0 | 9.0 | 0.00 | 1.05 | 0.02 | 94 | 1011.7 |
| 20260507014503 | 51 | 13 | 3.0 | 8.0 | 0.00 | 1.05 | 0.02 | 94 | 1011.8 |
| 20260507013604 | 51 | 12 | 2.0 | 5.0 | 0.00 | 1.05 | 0.02 | 94 | 1011.6 |
| 20260507012703 | 51 | 23 | 4.0 | 5.0 | 0.00 | 1.05 | 0.02 | 94 | 1011.7 |
| 20260507011803 | 51 | 5 | 3.0 | 8.0 | 0.00 | 1.05 | 0.02 | 94 | 1011.6 |
| 20260507010003 | 51 | 33 | 4.0 | 8.0 | 0.00 | 1.05 | 0.02 | 94 | 1011.6 |